User: anonymous   Login
Location: Lafig�re
(44.4503°N, 4.0357°E)
Time: 04:47:39
(UTC+00:00)
Language:

Cosmos 1674 - Orbit

View from above orbital plane
View from above orbital plane
View from above satellite
View from above satellite

Ground track
Ground track

The orbit data is extracted from the following two-line orbital elements,

1 15944U 85069A   20333.34860001 +.00001504 +00000-0 +68008-4 0  9990
2 15944 082.5095 059.3737 0018174 064.5133 295.7979 15.20011460929076
Epoch (UTC): 28 November 2020 08:21:59
Eccentricity: 0.0018174
inclination: 82.5095°
perigee height: 493 km
apogee height: 518 km
right ascension of ascending node: 59.3737°
argument of perigee: 64.5133°
revolutions per day: 15.20011460
mean anomaly at epoch: 295.7979°
orbit number at epoch: 92907

The dashed part of the orbit path shows where the satellite is in the earth's shadow,  

DLR